Year,Month,Day,Hour,Minute,Value (Times are PST for windspeed in km/hr)
2016,03,10,00,00,36.70
2016,03,10,00,01,30.80
2016,03,10,00,02,30.90
2016,03,10,00,03,29.00
2016,03,10,00,04,36.50
2016,03,10,00,05,33.70
2016,03,10,00,06,29.30
2016,03,10,00,07,32.10
2016,03,10,00,08,31.80
2016,03,10,00,09,31.20
2016,03,10,00,10,37.30
2016,03,10,00,11,34.00
2016,03,10,00,12,33.30
2016,03,10,00,13,31.00
2016,03,10,00,14,27.40
2016,03,10,00,15,32.20
2016,03,10,00,16,32.70
2016,03,10,00,17,27.60
2016,03,10,00,18,33.00
2016,03,10,00,19,35.30
2016,03,10,00,20,35.80
2016,03,10,00,21,40.30
2016,03,10,00,22,33.30
2016,03,10,00,23,31.60
2016,03,10,00,24,36.50
2016,03,10,00,25,31.20
2016,03,10,00,26,34.10
2016,03,10,00,27,23.20
2016,03,10,00,28,33.00
2016,03,10,00,29,28.50
2016,03,10,00,30,30.90
2016,03,10,00,31,32.30
2016,03,10,00,32,34.90
2016,03,10,00,33,28.90
2016,03,10,00,34,31.50
2016,03,10,00,35,32.10
2016,03,10,00,36,35.50
2016,03,10,00,37,36.20
2016,03,10,00,38,43.60
2016,03,10,00,39,30.40
2016,03,10,00,40,28.40
2016,03,10,00,41,34.70
2016,03,10,00,42,30.90
2016,03,10,00,43,30.90
2016,03,10,00,44,26.90
2016,03,10,00,45,22.50
2016,03,10,00,46,25.30
2016,03,10,00,47,29.30
2016,03,10,00,48,27.80
2016,03,10,00,49,29.30
2016,03,10,00,50,24.60
2016,03,10,00,51,33.70
2016,03,10,00,52,36.10
2016,03,10,00,53,24.20
2016,03,10,00,54,21.10
2016,03,10,00,55,28.30
2016,03,10,00,56,20.70
2016,03,10,00,57,25.50
2016,03,10,00,58,29.40
2016,03,10,00,59,29.10
2016,03,10,01,00,26.60
2016,03,10,01,01,29.40
2016,03,10,01,02,31.30
2016,03,10,01,03,27.10
2016,03,10,01,04,33.40
2016,03,10,01,05,27.40
2016,03,10,01,06,29.80
2016,03,10,01,07,27.80
2016,03,10,01,08,31.20
2016,03,10,01,09,41.50
2016,03,10,01,10,36.50
2016,03,10,01,11,31.70
2016,03,10,01,12,37.00
2016,03,10,01,13,33.50
2016,03,10,01,14,30.20
2016,03,10,01,15,39.20
2016,03,10,01,16,32.30
2016,03,10,01,17,34.10
2016,03,10,01,18,47.60
2016,03,10,01,19,27.80
2016,03,10,01,20,33.40
2016,03,10,01,21,46.50
2016,03,10,01,22,33.00
2016,03,10,01,23,30.20
2016,03,10,01,24,33.00
2016,03,10,01,25,24.70
2016,03,10,01,26,26.00
2016,03,10,01,27,37.10
2016,03,10,01,28,34.40
2016,03,10,01,29,36.20
2016,03,10,01,30,40.40
2016,03,10,01,31,34.50
2016,03,10,01,32,32.10
2016,03,10,01,33,28.20
2016,03,10,01,34,21.80
2016,03,10,01,35,20.60
2016,03,10,01,36,21.20
2016,03,10,01,37,18.70
2016,03,10,01,38,18.80
2016,03,10,01,39,24.60
2016,03,10,01,40,27.10
2016,03,10,01,41,36.20
2016,03,10,01,42,32.10
2016,03,10,01,43,28.60
2016,03,10,01,44,32.50
2016,03,10,01,45,28.60
2016,03,10,01,46,26.00
2016,03,10,01,47,23.20
2016,03,10,01,48,20.60
2016,03,10,01,49,23.50
2016,03,10,01,50,27.10
2016,03,10,01,51,37.10
2016,03,10,01,52,26.70
2016,03,10,01,53,29.90
2016,03,10,01,54,30.80
2016,03,10,01,55,35.90
2016,03,10,01,56,30.90
2016,03,10,01,57,32.10
2016,03,10,01,58,31.60
2016,03,10,01,59,28.50
2016,03,10,02,00,28.10
2016,03,10,02,01,31.60
2016,03,10,02,02,32.70
2016,03,10,02,03,33.30
2016,03,10,02,04,34.90
2016,03,10,02,05,34.00
2016,03,10,02,06,36.80
2016,03,10,02,07,37.40
2016,03,10,02,08,38.10
2016,03,10,02,09,39.60
2016,03,10,02,10,40.20
2016,03,10,02,11,34.70
2016,03,10,02,12,34.40
2016,03,10,02,13,36.00
2016,03,10,02,14,32.10
2016,03,10,02,15,31.40
2016,03,10,02,16,39.80
2016,03,10,02,17,41.10
2016,03,10,02,18,34.60
2016,03,10,02,19,30.80
2016,03,10,02,20,28.30
2016,03,10,02,21,27.50
2016,03,10,02,22,30.60
2016,03,10,02,23,37.70
2016,03,10,02,24,37.60
2016,03,10,02,25,35.90
2016,03,10,02,26,30.80
2016,03,10,02,27,24.50
2016,03,10,02,28,23.00
2016,03,10,02,29,29.60
2016,03,10,02,30,21.20
2016,03,10,02,31,29.80
2016,03,10,02,32,25.30
2016,03,10,02,33,15.30
2016,03,10,02,34,23.70
2016,03,10,02,35,27.40
2016,03,10,02,36,25.20
2016,03,10,02,37,27.50
2016,03,10,02,38,29.80
2016,03,10,02,39,31.80
2016,03,10,02,40,21.90
2016,03,10,02,41,19.30
2016,03,10,02,42,28.90
2016,03,10,02,43,26.90
2016,03,10,02,44,21.50
2016,03,10,02,45,21.10
2016,03,10,02,46,30.00
2016,03,10,02,47,25.30
2016,03,10,02,48,36.20
2016,03,10,02,49,30.30
2016,03,10,02,50,34.10
2016,03,10,02,51,33.90
2016,03,10,02,52,36.60
2016,03,10,02,53,27.50
2016,03,10,02,54,29.00
2016,03,10,02,55,33.90
2016,03,10,02,56,28.10
2016,03,10,02,57,23.20
2016,03,10,02,58,32.40
2016,03,10,02,59,27.40
2016,03,10,03,00,34.80
2016,03,10,03,01,27.10
2016,03,10,03,02,28.40
2016,03,10,03,03,30.80
2016,03,10,03,04,29.00
2016,03,10,03,05,28.30
2016,03,10,03,06,25.60
2016,03,10,03,07,28.80
2016,03,10,03,08,22.40
2016,03,10,03,09,23.70
2016,03,10,03,10,19.90
2016,03,10,03,11,16.60
2016,03,10,03,12,18.80
2016,03,10,03,13,21.10
2016,03,10,03,14,25.20
2016,03,10,03,15,29.70
2016,03,10,03,16,16.30
2016,03,10,03,17,19.10
2016,03,10,03,18,20.50
2016,03,10,03,19,14.50
2016,03,10,03,20,20.00
2016,03,10,03,21,11.00
2016,03,10,03,22,17.20
2016,03,10,03,23,19.10
2016,03,10,03,24,15.40
2016,03,10,03,25,12.40
2016,03,10,03,26,17.30
2016,03,10,03,27,13.70
2016,03,10,03,28,14.10
2016,03,10,03,29,16.60
2016,03,10,03,30,22.80
2016,03,10,03,31,17.40
2016,03,10,03,32,23.40
2016,03,10,03,33,31.70
2016,03,10,03,34,28.70
2016,03,10,03,35,33.20
2016,03,10,03,36,36.50
2016,03,10,03,37,33.90
2016,03,10,03,38,29.90
2016,03,10,03,39,29.00
2016,03,10,03,40,28.30
2016,03,10,03,41,28.10
2016,03,10,03,42,33.70
2016,03,10,03,43,28.90
2016,03,10,03,44,34.00
2016,03,10,03,45,29.70
2016,03,10,03,46,25.00
2016,03,10,03,47,20.90
2016,03,10,03,48,24.30
2016,03,10,03,49,19.80
2016,03,10,03,50,30.60
2016,03,10,03,51,27.00
2016,03,10,03,52,24.50
2016,03,10,03,53,25.00
2016,03,10,03,54,21.30
2016,03,10,03,55,20.00
2016,03,10,03,56,30.80
2016,03,10,03,57,32.00
2016,03,10,03,58,39.00
2016,03,10,03,59,26.00
2016,03,10,04,00,35.50
2016,03,10,04,01,35.10
2016,03,10,04,02,40.40
2016,03,10,04,03,40.40
2016,03,10,04,04,39.40
2016,03,10,04,05,34.30
2016,03,10,04,06,29.00
2016,03,10,04,07,39.30
2016,03,10,04,08,33.60
2016,03,10,04,09,29.60
2016,03,10,04,10,22.60
2016,03,10,04,11,22.70
2016,03,10,04,12,25.60
2016,03,10,04,13,34.70
2016,03,10,04,14,40.80
2016,03,10,04,15,30.20
2016,03,10,04,16,31.50
2016,03,10,04,17,24.40
2016,03,10,04,18,27.40
2016,03,10,04,19,23.70
2016,03,10,04,20,24.10
2016,03,10,04,21,22.50
2016,03,10,04,22,25.60
2016,03,10,04,23,28.70
2016,03,10,04,24,26.00
2016,03,10,04,25,31.30
2016,03,10,04,26,28.70
2016,03,10,04,27,20.70
2016,03,10,04,28,27.60
2016,03,10,04,29,26.80
2016,03,10,04,30,25.30
2016,03,10,04,31,24.60
2016,03,10,04,32,19.00
2016,03,10,04,33,19.30
2016,03,10,04,34,24.70
2016,03,10,04,35,24.60
2016,03,10,04,36,23.20
2016,03,10,04,37,30.50
2016,03,10,04,38,22.80
2016,03,10,04,39,29.00
2016,03,10,04,40,37.50
2016,03,10,04,41,28.10
2016,03,10,04,42,29.60
2016,03,10,04,43,39.90
2016,03,10,04,44,34.50
2016,03,10,04,45,40.20
2016,03,10,04,46,36.50
2016,03,10,04,47,30.50
2016,03,10,04,48,38.70
2016,03,10,04,49,38.40
2016,03,10,04,50,37.20
2016,03,10,04,51,34.40
2016,03,10,04,52,34.60
2016,03,10,04,53,33.40
2016,03,10,04,54,25.70
2016,03,10,04,55,37.40
2016,03,10,04,56,30.00
2016,03,10,04,57,35.20
2016,03,10,04,58,37.90
2016,03,10,04,59,33.10
2016,03,10,05,00,29.10
2016,03,10,05,01,19.70
2016,03,10,05,02,20.20
2016,03,10,05,03,29.80
2016,03,10,05,04,27.40
2016,03,10,05,05,22.40
2016,03,10,05,06,25.90
2016,03,10,05,07,37.40
2016,03,10,05,08,28.00
2016,03,10,05,09,30.30
2016,03,10,05,10,28.40
2016,03,10,05,11,28.30
2016,03,10,05,12,25.80
2016,03,10,05,13,37.00
2016,03,10,05,14,38.30
2016,03,10,05,15,40.60
2016,03,10,05,16,30.60
2016,03,10,05,17,38.00
2016,03,10,05,18,37.00
2016,03,10,05,19,26.10
2016,03,10,05,20,24.70
2016,03,10,05,21,23.80
2016,03,10,05,22,30.00
2016,03,10,05,23,25.70
2016,03,10,05,24,33.70
2016,03,10,05,25,21.00
2016,03,10,05,26,31.90
2016,03,10,05,27,39.60
2016,03,10,05,28,36.30
2016,03,10,05,29,40.40
2016,03,10,05,30,37.00
2016,03,10,05,31,26.30
2016,03,10,05,32,29.70
2016,03,10,05,33,30.30
2016,03,10,05,34,31.30
2016,03,10,05,35,23.50
2016,03,10,05,36,25.60
2016,03,10,05,37,25.00
2016,03,10,05,38,27.10
2016,03,10,05,39,30.80
2016,03,10,05,40,26.40
2016,03,10,05,41,34.10
2016,03,10,05,42,34.60
2016,03,10,05,43,28.90
2016,03,10,05,44,32.90
2016,03,10,05,45,25.20
2016,03,10,05,46,23.90
2016,03,10,05,47,24.50
2016,03,10,05,48,31.80
2016,03,10,05,49,29.70
2016,03,10,05,50,31.60
2016,03,10,05,51,24.70
2016,03,10,05,52,28.70
2016,03,10,05,53,25.70
2016,03,10,05,54,29.90
2016,03,10,05,55,33.00
2016,03,10,05,56,36.20
2016,03,10,05,57,38.60
2016,03,10,05,58,38.40
2016,03,10,05,59,30.20
2016,03,10,06,00,29.60
2016,03,10,06,01,33.40
2016,03,10,06,02,38.20
2016,03,10,06,03,34.10
2016,03,10,06,04,32.60
2016,03,10,06,05,33.00
2016,03,10,06,06,38.00
2016,03,10,06,07,36.10
2016,03,10,06,08,35.30
2016,03,10,06,09,36.20
2016,03,10,06,10,28.90
2016,03,10,06,11,20.90
2016,03,10,06,12,27.20
2016,03,10,06,13,24.30
2016,03,10,06,14,35.80
2016,03,10,06,15,31.50
2016,03,10,06,16,30.10
2016,03,10,06,17,30.60
2016,03,10,06,18,50.20
2016,03,10,06,19,42.70
2016,03,10,06,20,43.00
2016,03,10,06,21,45.10
2016,03,10,06,22,38.00
2016,03,10,06,23,29.30
2016,03,10,06,24,34.90
2016,03,10,06,25,45.60
2016,03,10,06,26,34.60
2016,03,10,06,27,35.90
2016,03,10,06,28,32.80
2016,03,10,06,29,38.10
2016,03,10,06,30,37.40
2016,03,10,06,31,36.60
2016,03,10,06,32,37.80
2016,03,10,06,33,33.90
2016,03,10,06,34,37.00
2016,03,10,06,35,34.60
2016,03,10,06,36,35.90
2016,03,10,06,37,35.60
2016,03,10,06,38,40.90
2016,03,10,06,39,39.20
2016,03,10,06,40,28.20
2016,03,10,06,41,32.20
2016,03,10,06,42,30.00
2016,03,10,06,43,33.90
2016,03,10,06,44,30.20
2016,03,10,06,45,28.00
2016,03,10,06,46,28.70
2016,03,10,06,47,31.40
2016,03,10,06,48,33.00
2016,03,10,06,49,32.40
2016,03,10,06,50,36.10
2016,03,10,06,51,30.90
2016,03,10,06,52,27.20
2016,03,10,06,53,25.30
2016,03,10,06,54,25.70
2016,03,10,06,55,28.10
2016,03,10,06,56,32.80
2016,03,10,06,57,34.60
2016,03,10,06,58,21.70
2016,03,10,06,59,24.60
2016,03,10,07,00,22.10
2016,03,10,07,01,23.60
2016,03,10,07,02,24.70
2016,03,10,07,03,23.90
2016,03,10,07,04,27.50
2016,03,10,07,05,27.40
2016,03,10,07,06,31.70
2016,03,10,07,07,29.30
2016,03,10,07,08,35.00
2016,03,10,07,09,34.90
2016,03,10,07,10,33.10
2016,03,10,07,11,33.10
2016,03,10,07,12,31.60
2016,03,10,07,13,34.20
2016,03,10,07,14,37.60
2016,03,10,07,15,29.30
2016,03,10,07,16,24.60
2016,03,10,07,17,28.90
2016,03,10,07,18,31.40
2016,03,10,07,19,29.10
2016,03,10,07,20,30.10
2016,03,10,07,21,28.50
2016,03,10,07,22,32.40
2016,03,10,07,23,32.80
2016,03,10,07,24,26.30
2016,03,10,07,25,25.30
2016,03,10,07,26,28.70
2016,03,10,07,27,31.60
2016,03,10,07,28,26.90
2016,03,10,07,29,29.60
2016,03,10,07,30,26.40
2016,03,10,07,31,27.50
2016,03,10,07,32,32.00
2016,03,10,07,33,29.70
2016,03,10,07,34,31.80
2016,03,10,07,35,28.70
2016,03,10,07,36,24.60
2016,03,10,07,37,32.40
2016,03,10,07,38,27.60
2016,03,10,07,39,21.60
2016,03,10,07,40,21.00
2016,03,10,07,41,24.90
2016,03,10,07,42,22.20
2016,03,10,07,43,22.70
2016,03,10,07,44,28.10
2016,03,10,07,45,20.70
2016,03,10,07,46,17.30
2016,03,10,07,47,27.80
2016,03,10,07,48,17.80
2016,03,10,07,49,23.80
2016,03,10,07,50,17.20
2016,03,10,07,51,20.50
2016,03,10,07,52,27.50
2016,03,10,07,53,23.70
2016,03,10,07,54,24.40
2016,03,10,07,55,18.80
2016,03,10,07,56,24.40
2016,03,10,07,57,20.10
2016,03,10,07,58,18.30
2016,03,10,07,59,14.70
2016,03,10,08,00,20.70
2016,03,10,08,01,24.00
2016,03,10,08,02,24.80
2016,03,10,08,03,16.90
2016,03,10,08,04,18.60
2016,03,10,08,05,20.70
2016,03,10,08,06,25.60
2016,03,10,08,07,18.80
2016,03,10,08,08,20.70
2016,03,10,08,09,24.50
2016,03,10,08,10,22.20
2016,03,10,08,11,24.00
2016,03,10,08,12,20.70
2016,03,10,08,13,17.60
2016,03,10,08,14,17.50
2016,03,10,08,15,19.10
2016,03,10,08,16,20.90
2016,03,10,08,17,20.00
2016,03,10,08,18,20.40
2016,03,10,08,19,16.70
2016,03,10,08,20,17.90
2016,03,10,08,21,19.40
2016,03,10,08,22,15.50
2016,03,10,08,23,12.20
2016,03,10,08,24,14.20
2016,03,10,08,25,14.40
2016,03,10,08,26,20.10
2016,03,10,08,27,15.90
2016,03,10,08,28,15.30
2016,03,10,08,29,11.50
2016,03,10,08,30,8.80
2016,03,10,08,31,9.50
2016,03,10,08,32,8.90
2016,03,10,08,33,11.40
2016,03,10,08,34,11.40
2016,03,10,08,35,8.60
2016,03,10,08,36,13.10
2016,03,10,08,37,17.80
2016,03,10,08,38,16.20
2016,03,10,08,39,13.30
2016,03,10,08,40,18.00
2016,03,10,08,41,11.70
2016,03,10,08,42,14.80
2016,03,10,08,43,12.10
2016,03,10,08,44,9.50
2016,03,10,08,45,14.90
2016,03,10,08,46,15.00
2016,03,10,08,47,12.30
2016,03,10,08,48,11.60
2016,03,10,08,49,18.00
2016,03,10,08,50,15.20
2016,03,10,08,51,14.60
2016,03,10,08,52,13.60
2016,03,10,08,53,11.10
2016,03,10,08,54,12.30
2016,03,10,08,55,14.80
2016,03,10,08,56,12.00
2016,03,10,08,57,9.40
2016,03,10,08,58,10.90
2016,03,10,08,59,12.50
2016,03,10,09,00,10.60
2016,03,10,09,01,7.70
2016,03,10,09,02,11.80
2016,03,10,09,03,7.90
2016,03,10,09,04,7.10
2016,03,10,09,05,3.70
2016,03,10,09,06,4.20
2016,03,10,09,07,8.60
2016,03,10,09,08,4.50
2016,03,10,09,09,2.10
2016,03,10,09,10,4.80
2016,03,10,09,11,5.10
2016,03,10,09,12,3.20
2016,03,10,09,13,2.30
2016,03,10,09,14,3.50
2016,03,10,09,15,4.80
2016,03,10,09,16,3.00
2016,03,10,09,17,2.70
2016,03,10,09,18,2.10
2016,03,10,09,19,3.50
2016,03,10,09,20,1.90
2016,03,10,09,21,3.50
2016,03,10,09,22,4.10
2016,03,10,09,23,3.10
2016,03,10,09,24,3.80
2016,03,10,09,25,0.50
2016,03,10,09,26,0.80
2016,03,10,09,27,1.80
2016,03,10,09,28,0.00
2016,03,10,09,29,0.20
2016,03,10,09,30,1.50
2016,03,10,09,31,2.50
2016,03,10,09,32,0.00
2016,03,10,09,33,4.40
2016,03,10,09,34,5.50
2016,03,10,09,35,5.20
2016,03,10,09,36,3.30
2016,03,10,09,37,6.60
2016,03,10,09,38,7.10
2016,03,10,09,39,7.50
2016,03,10,09,40,11.40
2016,03,10,09,41,9.20
2016,03,10,09,42,7.00
2016,03,10,09,43,11.10
2016,03,10,09,44,11.00
2016,03,10,09,45,5.70
2016,03,10,09,46,11.30
2016,03,10,09,47,12.80
2016,03,10,09,48,12.70
2016,03,10,09,49,12.10
2016,03,10,09,50,12.00
2016,03,10,09,51,12.40
2016,03,10,09,52,11.20
2016,03,10,09,53,12.90
2016,03,10,09,54,10.00
2016,03,10,09,55,10.00
2016,03,10,09,56,9.80
2016,03,10,09,57,9.50
2016,03,10,09,58,7.20
2016,03,10,09,59,7.60
2016,03,10,10,00,7.40
2016,03,10,10,01,4.50
2016,03,10,10,02,4.80
2016,03,10,10,03,5.60
2016,03,10,10,04,6.20
2016,03,10,10,05,5.10
2016,03,10,10,06,5.80
2016,03,10,10,07,5.80
2016,03,10,10,08,5.30
2016,03,10,10,09,5.50
2016,03,10,10,10,4.60
2016,03,10,10,11,5.40
2016,03,10,10,12,5.50
2016,03,10,10,13,5.40
2016,03,10,10,14,7.20
2016,03,10,10,15,5.90
2016,03,10,10,16,5.20
2016,03,10,10,17,3.60
2016,03,10,10,18,3.00
2016,03,10,10,19,4.60
2016,03,10,10,20,3.50
2016,03,10,10,21,4.80
2016,03,10,10,22,5.10
2016,03,10,10,23,4.70
2016,03,10,10,24,3.90
2016,03,10,10,25,3.80
2016,03,10,10,26,2.30
2016,03,10,10,27,3.00
2016,03,10,10,28,1.30
2016,03,10,10,29,0.10
2016,03,10,10,30,0.10
2016,03,10,10,31,0.00
2016,03,10,10,32,0.00
2016,03,10,10,33,0.00
2016,03,10,10,34,0.00
2016,03,10,10,35,0.00
2016,03,10,10,36,0.00
2016,03,10,10,37,0.00
2016,03,10,10,38,0.00
2016,03,10,10,39,0.80
2016,03,10,10,40,3.50
2016,03,10,10,41,3.30
2016,03,10,10,42,3.60
2016,03,10,10,43,3.60
2016,03,10,10,44,3.70
2016,03,10,10,45,4.00
2016,03,10,10,46,2.60
2016,03,10,10,47,2.90
2016,03,10,10,48,1.90
2016,03,10,10,49,2.10
2016,03,10,10,50,0.60
2016,03,10,10,51,1.40
2016,03,10,10,52,1.30
2016,03,10,10,53,0.00
2016,03,10,10,54,0.00
2016,03,10,10,55,0.00
2016,03,10,10,56,0.00
2016,03,10,10,57,0.00
2016,03,10,10,58,0.00
2016,03,10,10,59,2.20
2016,03,10,11,00,3.00
2016,03,10,11,01,3.20
2016,03,10,11,02,3.30
2016,03,10,11,03,4.10
2016,03,10,11,04,3.50
2016,03,10,11,05,1.70
2016,03,10,11,06,1.40
2016,03,10,11,07,0.00
2016,03,10,11,08,1.10
2016,03,10,11,09,1.50
2016,03,10,11,10,0.10
2016,03,10,11,11,0.00
2016,03,10,11,12,0.00
2016,03,10,11,13,1.20
2016,03,10,11,14,2.90
2016,03,10,11,15,3.00
2016,03,10,11,16,2.90
2016,03,10,11,17,3.10
2016,03,10,11,18,2.40
2016,03,10,11,19,2.30
2016,03,10,11,20,2.00
2016,03,10,11,21,0.00
2016,03,10,11,22,2.10
2016,03,10,11,23,0.20
2016,03,10,11,24,0.10
2016,03,10,11,25,2.40
2016,03,10,11,26,3.10
2016,03,10,11,27,1.30
2016,03,10,11,28,1.40
2016,03,10,11,29,0.00
2016,03,10,11,30,0.00
2016,03,10,11,31,2.20
2016,03,10,11,32,5.40
2016,03,10,11,33,6.20
2016,03,10,11,34,6.10
2016,03,10,11,35,2.70
2016,03,10,11,36,3.10
2016,03,10,11,37,4.10
2016,03,10,11,38,4.30
2016,03,10,11,39,4.10
2016,03,10,11,40,3.80
2016,03,10,11,41,2.40
2016,03,10,11,42,2.10
2016,03,10,11,43,4.00
2016,03,10,11,44,1.90
2016,03,10,11,45,1.20
2016,03,10,11,46,1.00
2016,03,10,11,47,0.20
2016,03,10,11,48,0.40
2016,03,10,11,49,1.30
2016,03,10,11,50,1.30
2016,03,10,11,51,0.80
2016,03,10,11,52,0.20
2016,03,10,11,53,0.10
2016,03,10,11,54,1.80
2016,03,10,11,55,6.00
2016,03,10,11,56,7.60
2016,03,10,11,57,4.90
2016,03,10,11,58,7.50
2016,03,10,11,59,6.60
2016,03,10,12,00,6.40
2016,03,10,12,01,6.40
2016,03,10,12,02,5.10
2016,03,10,12,03,3.90
2016,03,10,12,04,6.80
2016,03,10,12,05,5.70
2016,03,10,12,06,4.20
2016,03,10,12,07,5.10
2016,03,10,12,08,3.80
2016,03,10,12,09,2.40
2016,03,10,12,10,3.10
2016,03,10,12,11,1.30
2016,03,10,12,12,3.30
2016,03,10,12,13,3.60
2016,03,10,12,14,4.60
2016,03,10,12,15,4.90
2016,03,10,12,16,6.50
2016,03,10,12,17,6.90
2016,03,10,12,18,3.50
2016,03,10,12,19,2.00
2016,03,10,12,20,2.70
2016,03,10,12,21,1.80
2016,03,10,12,22,4.20
2016,03,10,12,23,3.60
2016,03,10,12,24,3.00
2016,03,10,12,25,4.50
2016,03,10,12,26,2.20
2016,03,10,12,27,0.00
2016,03,10,12,28,0.00
2016,03,10,12,29,0.10
2016,03,10,12,30,2.90
2016,03,10,12,31,1.90
2016,03,10,12,32,0.20
2016,03,10,12,33,0.00
2016,03,10,12,34,0.80
2016,03,10,12,35,0.10
2016,03,10,12,36,0.00
2016,03,10,12,37,0.00
2016,03,10,12,38,0.00
2016,03,10,12,39,0.00
2016,03,10,12,40,0.10
2016,03,10,12,41,0.00
2016,03,10,12,42,0.00
2016,03,10,12,43,1.30
2016,03,10,12,44,3.30
2016,03,10,12,45,2.20
2016,03,10,12,46,0.50
2016,03,10,12,47,0.80
2016,03,10,12,48,0.10
2016,03,10,12,49,3.80
2016,03,10,12,50,3.70
2016,03,10,12,51,5.90
2016,03,10,12,52,3.70
2016,03,10,12,53,4.90
2016,03,10,12,54,4.60
2016,03,10,12,55,3.20
2016,03,10,12,56,3.70
2016,03,10,12,57,2.50
2016,03,10,12,58,0.70
2016,03,10,12,59,3.00
2016,03,10,13,00,3.50
2016,03,10,13,01,3.20
2016,03,10,13,02,3.20
2016,03,10,13,03,3.20
2016,03,10,13,04,3.20
2016,03,10,13,05,3.70
2016,03,10,13,06,2.90
2016,03,10,13,07,4.90
2016,03,10,13,08,3.10
2016,03,10,13,09,3.30
2016,03,10,13,10,4.10
2016,03,10,13,11,3.50
2016,03,10,13,12,5.00
2016,03,10,13,13,4.20
2016,03,10,13,14,4.50
2016,03,10,13,15,3.70
2016,03,10,13,16,1.70
2016,03,10,13,17,3.40
2016,03,10,13,18,3.00
2016,03,10,13,19,0.70
2016,03,10,13,20,0.80
2016,03,10,13,21,2.80
2016,03,10,13,22,4.60
2016,03,10,13,23,3.20
2016,03,10,13,24,2.60
2016,03,10,13,25,4.60
2016,03,10,13,26,5.90
2016,03,10,13,27,4.20
2016,03,10,13,28,4.00
2016,03,10,13,29,4.90
2016,03,10,13,30,4.80
2016,03,10,13,31,6.70
2016,03,10,13,32,3.40
2016,03,10,13,33,3.60
2016,03,10,13,34,3.70
2016,03,10,13,35,4.30
2016,03,10,13,36,6.50
2016,03,10,13,37,5.00
2016,03,10,13,38,4.20
2016,03,10,13,39,6.00
2016,03,10,13,40,3.90
2016,03,10,13,41,3.90
2016,03,10,13,42,5.70
2016,03,10,13,43,3.60
2016,03,10,13,44,6.40
2016,03,10,13,45,5.70
2016,03,10,13,46,4.60
2016,03,10,13,47,5.70
2016,03,10,13,48,4.50
2016,03,10,13,49,6.30
2016,03,10,13,50,6.30
2016,03,10,13,51,6.00
2016,03,10,13,52,5.20
2016,03,10,13,53,5.70
2016,03,10,13,54,6.00
2016,03,10,13,55,7.60
2016,03,10,13,56,6.20
2016,03,10,13,57,5.50
2016,03,10,13,58,6.90
2016,03,10,13,59,6.50
2016,03,10,14,00,6.40
2016,03,10,14,01,6.40
2016,03,10,14,02,6.70
2016,03,10,14,03,4.80
2016,03,10,14,04,4.40
2016,03,10,14,05,5.90
2016,03,10,14,06,6.20
2016,03,10,14,07,5.30
2016,03,10,14,08,5.90
2016,03,10,14,09,5.10
2016,03,10,14,10,6.10
2016,03,10,14,11,4.80
2016,03,10,14,12,7.20
2016,03,10,14,13,4.70
2016,03,10,14,14,6.10
2016,03,10,14,15,4.30
2016,03,10,14,16,3.70
2016,03,10,14,17,4.60
2016,03,10,14,18,3.80
2016,03,10,14,19,3.20
2016,03,10,14,20,3.50
2016,03,10,14,21,5.90
2016,03,10,14,22,4.30
2016,03,10,14,23,4.10
2016,03,10,14,24,5.60
2016,03,10,14,25,7.10
2016,03,10,14,26,4.50
2016,03,10,14,27,5.40
2016,03,10,14,28,3.00
2016,03,10,14,29,4.90
2016,03,10,14,30,4.50
2016,03,10,14,31,3.00
2016,03,10,14,32,3.50
2016,03,10,14,33,3.60
2016,03,10,14,34,4.50
2016,03,10,14,35,3.20
2016,03,10,14,36,5.90
2016,03,10,14,37,3.80
2016,03,10,14,38,2.90
2016,03,10,14,39,3.60
2016,03,10,14,40,5.10
2016,03,10,14,41,5.40
2016,03,10,14,42,5.70
2016,03,10,14,43,4.80
2016,03,10,14,44,3.70
2016,03,10,14,45,4.60
2016,03,10,14,46,4.60
2016,03,10,14,47,5.20
2016,03,10,14,48,3.90
2016,03,10,14,49,3.50
2016,03,10,14,50,4.50
2016,03,10,14,51,4.30
2016,03,10,14,52,1.70
2016,03,10,14,53,0.40
2016,03,10,14,54,0.80
2016,03,10,14,55,0.90
2016,03,10,14,56,2.90
2016,03,10,14,57,2.50
2016,03,10,14,58,1.50
2016,03,10,14,59,0.00
2016,03,10,15,00,0.00
2016,03,10,15,01,0.00
2016,03,10,15,02,0.00
2016,03,10,15,03,0.00
2016,03,10,15,04,0.10
2016,03,10,15,05,4.40
2016,03,10,15,06,2.20
2016,03,10,15,07,0.60
2016,03,10,15,08,2.40
2016,03,10,15,09,1.90
2016,03,10,15,10,0.50
2016,03,10,15,11,0.00
2016,03,10,15,12,1.60
2016,03,10,15,13,4.30
2016,03,10,15,14,6.10
2016,03,10,15,15,7.50
2016,03,10,15,16,5.20
2016,03,10,15,17,4.00
2016,03,10,15,18,5.10
2016,03,10,15,19,7.50
2016,03,10,15,20,6.10
2016,03,10,15,21,2.30
2016,03,10,15,22,2.90
2016,03,10,15,23,6.00
2016,03,10,15,24,7.80
2016,03,10,15,25,5.70
2016,03,10,15,26,4.20
2016,03,10,15,27,4.00
2016,03,10,15,28,1.40
2016,03,10,15,29,3.00
2016,03,10,15,30,4.50
2016,03,10,15,31,5.20
2016,03,10,15,32,7.00
2016,03,10,15,33,6.40
2016,03,10,15,34,6.50
2016,03,10,15,35,7.80
2016,03,10,15,36,4.30
2016,03,10,15,37,6.00
2016,03,10,15,38,5.70
2016,03,10,15,39,5.90
2016,03,10,15,40,6.80
2016,03,10,15,41,4.10
2016,03,10,15,42,3.50
2016,03,10,15,43,3.80
2016,03,10,15,44,5.80
2016,03,10,15,45,3.30
2016,03,10,15,46,3.90
2016,03,10,15,47,4.60
2016,03,10,15,48,3.50
2016,03,10,15,49,3.30
2016,03,10,15,50,3.30
2016,03,10,15,51,4.80
2016,03,10,15,52,3.60
2016,03,10,15,53,3.00
2016,03,10,15,54,2.10
2016,03,10,15,55,4.20
2016,03,10,15,56,3.80
2016,03,10,15,57,7.50
2016,03,10,15,58,6.70
2016,03,10,15,59,5.50
2016,03,10,16,00,3.50
2016,03,10,16,01,5.80
2016,03,10,16,02,7.20
2016,03,10,16,03,5.50
2016,03,10,16,04,2.10
2016,03,10,16,05,3.60
2016,03,10,16,06,2.90
2016,03,10,16,07,3.40
2016,03,10,16,08,3.90
2016,03,10,16,09,5.80
2016,03,10,16,10,3.80
2016,03,10,16,11,3.50
2016,03,10,16,12,4.20
2016,03,10,16,13,2.30
2016,03,10,16,14,1.60
2016,03,10,16,15,0.40
2016,03,10,16,16,0.60
2016,03,10,16,17,1.70
2016,03,10,16,18,3.00
2016,03,10,16,19,3.70
2016,03,10,16,20,2.30
2016,03,10,16,21,5.30
2016,03,10,16,22,7.40
2016,03,10,16,23,4.60
2016,03,10,16,24,4.40
2016,03,10,16,25,3.20
2016,03,10,16,26,3.10
2016,03,10,16,27,0.90
2016,03,10,16,28,0.30
2016,03,10,16,29,0.80
2016,03,10,16,30,3.90
2016,03,10,16,31,5.80
2016,03,10,16,32,3.60
2016,03,10,16,33,1.70
2016,03,10,16,34,2.60
2016,03,10,16,35,3.70
2016,03,10,16,36,4.20
2016,03,10,16,37,3.80
2016,03,10,16,38,3.00
2016,03,10,16,39,3.40
2016,03,10,16,40,4.60
2016,03,10,16,41,3.20
2016,03,10,16,42,2.40
2016,03,10,16,43,3.60
2016,03,10,16,44,7.60
2016,03,10,16,45,7.60
2016,03,10,16,46,7.50
2016,03,10,16,47,8.20
2016,03,10,16,48,4.90
2016,03,10,16,49,2.90
2016,03,10,16,50,3.50
2016,03,10,16,51,5.40
2016,03,10,16,52,6.80
2016,03,10,16,53,7.90
2016,03,10,16,54,3.20
2016,03,10,16,55,6.30
2016,03,10,16,56,7.90
2016,03,10,16,57,5.60
2016,03,10,16,58,5.20
2016,03,10,16,59,5.50
2016,03,10,17,00,4.40
2016,03,10,17,01,3.40
2016,03,10,17,02,2.10
2016,03,10,17,03,3.60
2016,03,10,17,04,1.50
2016,03,10,17,05,0.80
2016,03,10,17,06,0.10
2016,03,10,17,07,0.50
2016,03,10,17,08,0.10
2016,03,10,17,09,0.00
2016,03,10,17,10,3.90
2016,03,10,17,11,5.20
2016,03,10,17,12,2.20
2016,03,10,17,13,5.50
2016,03,10,17,14,3.60
2016,03,10,17,15,6.40
2016,03,10,17,16,5.60
2016,03,10,17,17,4.40
2016,03,10,17,18,3.60
2016,03,10,17,19,3.40
2016,03,10,17,20,5.40
2016,03,10,17,21,5.30
2016,03,10,17,22,5.10
2016,03,10,17,23,6.40
2016,03,10,17,24,7.10
2016,03,10,17,25,6.90
2016,03,10,17,26,5.10
2016,03,10,17,27,6.10
2016,03,10,17,28,7.00
2016,03,10,17,29,5.80
2016,03,10,17,30,6.90
2016,03,10,17,31,6.40
2016,03,10,17,32,6.10
2016,03,10,17,33,8.60
2016,03,10,17,34,8.50
2016,03,10,17,35,9.40
2016,03,10,17,36,9.70
2016,03,10,17,37,9.80
2016,03,10,17,38,8.20
2016,03,10,17,39,9.50
2016,03,10,17,40,8.70
2016,03,10,17,41,8.00